{"data":{"norad_id":40938,"epoch":"2026-09-19T21:27:49.711104Z","epoch_age_seconds":66639,"freshness":"FRESH","line1":"1 40938U 15053A   26262.89432536 -.00000097  00000+0  00000+0 0  9991","line2":"2 40938  49.0826 257.6464 0065426 192.7057 326.3890  1.00283418 40308","mean_motion":1.00283418,"eccentricity":0.0065426,"inclination_deg":49.0826,"raan_deg":257.6464,"arg_perigee_deg":192.7057,"mean_anomaly_deg":326.389,"bstar":0,"rev_number":4030,"period_min":1435.9303150198,"perigee_km":35507.488483275,"apogee_km":36059.17976523,"semimajor_km":42161.471124253,"source":"CELESTRAK","updated_at":"2026-09-20T09:00:46.674129Z"}}